Tracking 19717 objects as of 25-Jun-2019
HD Live streaming from Space Station
objects crossing your sky now

FENGYUN 1C DEB

Track FENGYUN 1C DEB now!
10-day predictions


NORAD ID: 30403
Int'l Code: 1999-025ADS
Perigee: 812.6 km
Apogee: 949.7 km
Inclination: 99.2 °
Period: 102.4 minutes
Semi major axis: 7252 km
RCS: 0.0223 m2 (small)
Launch date: May 10, 1999
Source: People's Republic of China (PRC)
Launch site: Taiyaun Space Center, China (TSC)

Note: This is SATELLITE DEBRIS
aabbcc
Your satellite tracking list
Your tracking list is empty




NASA's NSSDC Master Catalog

Two Line Element Set (TLE):
1 30403U 99025ADS 19175.70438481 +.00000409 +00000-0 +26734-3 0  9991
2 30403 099.1883 188.1095 0094542 158.7004 201.8139 14.05740077634980
Source of the keplerian elements: AFSPC